Regional Weather Roundup
Issued by NWS Columbia, SC

Home | Current Version | Previous Version | Text Only | Print | Product List | Glossary On
Versions: 1 2 3 4 5 6 7 8 9 10 11 12 13 14 15 16 17 18 19 20 21 22 23 24 25 26 27 28 29 30 31 32 33 34 35 36 37 38 39 40 41 42 43 44 45 46 47 48 49 50
000
ASUS42 KCAE 210810
RWRCAE
REGIONAL WEATHER ROUNDUP
NATIONAL WEATHER SERVICE COLUMBIA SC
400 AM EDT THU AUG 21 2014

NOTE: "FAIR" INDICATES FEW OR NO CLOUDS BELOW 12,000 FEET WITH NO
SIGNIFICANT WEATHER AND/OR OBSTRUCTIONS TO VISIBILITY.

NOT ALL STATIONS ARE QUALITY CONTROLLED BY THE NATIONAL
WEATHER SERVICE. USE DATA WITH CAUTION...ESPECIALLY
DEWPOINT OBSERVATIONS.

SCZ001>056-GAZ040-063>065-077-210900-
...UPSTATE SOUTH CAROLINA...

CITY           SKY/WX    TMP DP  RH WIND       PRES   REMARKS
ANDERSON       PTCLDY    70  66  87 CALM      30.05S
LIBERTY        FAIR      66  32  27 CALM      30.05S
SPARTANBURG    FAIR      73  64  73 NW6       30.04S
CLEMSON        PTCLDY    72  64  76 CALM      30.06S
GREENVILLE     PTCLDY    72  66  81 W3        30.06F
GREENWOOD      PTCLDY    71  66  84 NW3       30.07R
GREER          CLEAR     70  66  87 CALM      30.04S
ROCK HILL      CLEAR     72  70  93 W3        30.04R
CHESTER        FAIR      75  70  83 W3        30.04R
LAURENS        FAIR      70  70 100 CALM      30.05S


...CENTRAL SOUTH CAROLINA...

CITY           SKY/WX    TMP DP  RH WIND       PRES   REMARKS
COLUMBIA APT   PTCLDY    76  70  82 W3        29.99F
COLUMBIA OWENS PTCLDY    77  71  82 CALM      30.00F
DARLINGTON     CLEAR     73  70  88 CALM      29.99F
FLORENCE       CLEAR     75  73  93 CALM      29.99S
MCENTIRE ANGB  PTCLDY    73  71  94 CALM      30.00F
ORANGEBURG     MOCLDY    74  69  85 S3        30.01F
SUMTER SHAW    PTCLDY    78  72  82 NW3       29.98F
NEWBERRY       FAIR      73  66  78 W5        30.06S
AIKEN          FAIR      72  72 100 W6        30.06S
BARNWELL       FAIR      73  70  88 CALM      30.02F
MANNING        FAIR      75 N/A N/A CALM      30.00S
CAMDEN         FAIR      75  73  94 CALM      30.00F
LANCASTER      FAIR      73  73 100 NW6       30.02R FOG
WINNSBORO      FAIR      73  70  88 CALM      30.00F


...EASTERN AND COASTAL SOUTH CAROLINA...

CITY           SKY/WX    TMP DP  RH WIND       PRES   REMARKS
MYRTLE BEACH   CLEAR     81  73  78 SW3       29.99F
N MYRTLE BCH   CLEAR     76  75  97 CALM      29.99S FOG
CONWAY         FAIR      73  73 100 CALM      29.99F FOG
MARION         FAIR      75  75 100 CALM      29.99F
HARTSVILLE     FAIR      75  73  94 CALM      30.00S
FLORENCE       CLEAR     75  73  93 CALM      29.99S
DARLINGTON     CLEAR     73  70  88 CALM      29.99F
CHARLESTON APT MOCLDY    80  72  76 W3        30.01S
MOUNT PLEASANT FAIR      77  75  94 CALM      30.01R
WALTERBORO     PTSUNNY   75  75 100 W3        30.02F
BEAUFORT       PTCLDY    77  70  79 N5        30.03R


...EASTERN GEORGIA...

CITY           SKY/WX    TMP DP  RH WIND       PRES   REMARKS
AUGUSTA BUSH F PTCLDY    74  68  81 CALM      30.02S
AUGUSTA DANIEL PTCLDY    76  68  76 W6        30.04S
THOMSON        PTCLDY    72  72 100 CALM      30.09S
WASHINGTON     FAIR      75  73  94 CALM      30.05S
CLAXTON        FAIR      72  72 100 CALM      30.04F
SYLVANIA       MOSUNNY   72  72  98 CALM      30.04S
STATESBORO     PTCLDY    72  72 100 CALM      30.03F
SAVANNAH       CLEAR     75  69  81 W3        30.04S


...SOUTHERN NORTH CAROLINA...

CITY           SKY/WX    TMP DP  RH WIND       PRES   REMARKS
CHARLOTTE      PTCLDY    71  67  87 CALM      30.04S
MONROE         CLEAR     74  71  91 NW7       30.03R
WADESBORO      SUNNY     72  70  92 CALM      30.00R
ROCKINGHAM     SUNNY     74  73  94 CALM      30.00R
RUTHERFORDTON  PTCLDY    71  63  76 CALM      30.07R
ASHEVILLE      PTCLDY    65  62  90 N9        30.15S

$$


USA.gov is the U.S. government's official web portal to all federal, state and local government web resources and services.